Overview Statistics Trail Chart Weather Telemetry Raw packets
 

This is the latest recevied weather packets stored in our database for station/object HB9GPU-10. If no packets are shown the sender has not sent any weather packets the latest 10 day(s).

<< 20 21 22 23 24 25 26 >>
Time Temp. Humidity Pressure Rain* Wind** Luminosity Snow
1788183187 26.11° C 36% 1023.3 hPa - - - -
1788182286 26.11° C 36% 1023.3 hPa - - - -
1788181385 26.11° C 36% 1023.4 hPa - - - -
1788180485 25.56° C 37% 1023.2 hPa - - - -
1788179585 26.11° C 36% 1023 hPa - - - -
1788178685 26.67° C 35% 1023.1 hPa - - - -
1788177785 26.11° C 37% 1023.2 hPa - - - -
1788176884 25.56° C 37% 1023.4 hPa - - - -
1788175984 26.11° C 37% 1023.1 hPa - - - -
1788175084 25.56° C 38% 1023.2 hPa - - - -
1788174184 25.56° C 38% 1023.3 hPa - - - -
1788173284 26.11° C 37% 1023.3 hPa - - - -
1788172383 25.56° C 38% 1023.4 hPa - - - -
1788171483 25.56° C 38% 1023.4 hPa - - - -
1788170583 25.56° C 39% 1023.4 hPa - - - -
1788169683 25.56° C 38% 1023.3 hPa - - - -
1788168783 26.11° C 37% 1023.5 hPa - - - -
1788167883 26.11° C 38% 1023.3 hPa - - - -
1788167000 25.56° C 38% 1023.4 hPa - - - -
1788166082 25.56° C 38% 1023.4 hPa - - - -
1788165182 25.56° C 39% 1023.3 hPa - - - -
1788164282 25.56° C 39% 1023.2 hPa - - - -
1788163382 25.56° C 38% 1023.1 hPa - - - -
1788162482 25.56° C 37% 1023 hPa - - - -
1788161581 25° C 39% 1023 hPa - - - -

* Rain since midnight (hover to see other rain measurements)
** Current wind speed in m/s (hover to see current wind gust speed)